Regional Weather Roundup
Issued by NWS

Home | Current Version | Previous Version | Graphics & Text | Print | Product List | Glossary On
Versions: 1 2 3 4 5 6 7 8 9 10 11 12 13 14 15 16 17 18 19 20 21 22 23 24 25 26 27 28 29 30 31 32 33 34 35 36 37 38 39 40 41 42 43 44 45 46 47 48 49 50
000
ASUS43 KDMX 270207
RWRIA

WEATHER ROUNDUP FOR IOWA
NATIONAL WEATHER SERVICE DES MOINES IA
900 PM CDT TUE AUG 26 2014

NOTE: "FAIR" INDICATES FEW OR NO CLOUDS BELOW 12,000 FEET WITH NO
SIGNIFICANT WEATHER AND/OR OBSTRUCTIONS TO VISIBILITY.

* - THESE STATIONS ARE NOT NWS STATIONS...THUS NOT UNDER NWS
QUALITY CONTROL.  THEY ALSO DO NOT REPORT WEATHER SUCH
AS PRECIPITATION OR FOG.

IAZ001>003-012>014-020>022-031>034-043>046-270300-
   NORTHWEST IOWA

CITY           SKY/WX    TMP DP  RH WIND       PRES   REMARKS
CARROLL *      PTCLDY    68  64  88 CALM      30.13S
CHEROKEE *     PTCLDY    64  63  94 CALM      30.15R
DENISON *      MOCLDY    68  64  88 NE5       30.12R
LE MARS *      CLEAR     66  61  82 VRB3      30.15R
ORANGE CITY *  CLEAR     68  61  77 CALM      30.16R
SHELDON *      MOCLDY    61  61 100 CALM      30.15R
SIOUX CITY     CLEAR     68  62  81 NE6       30.13R
SPENCER        PTCLDY    63  59  87 E6        30.16R
STORM LAKE *   CLEAR     63  63 100 E3        30.16R
$$

IAZ055>058-069>071-079>083-090>094-270300-
   SOUTHWEST IOWA

CITY           SKY/WX    TMP DP  RH WIND       PRES   REMARKS
ATLANTIC *     CLEAR     72  66  83 CALM      30.12R
AUDUBON *      PTCLDY    72  68  88 E3        30.14F
CLARINDA *     CLEAR     72  70  94 CALM      30.13R
COUNCIL BLFS * CLEAR     72  70  94 E6        30.11S
CRESTON *      CLEAR     70  68  94 NE7       30.14R
HARLAN  *      CLEAR     70  68  94 CALM      30.16R
LAMONI         CLEAR     72  68  87 CALM      30.13R
RED OAK *      PTCLDY    72  68  88 E5        30.11S
SHENANDOAH *   CLEAR     73  70  88 NE7       30.11S
$$

IAZ047>049-059>061-072>074-084-270300-
   CENTRAL IOWA

CITY           SKY/WX    TMP DP  RH WIND       PRES   REMARKS
AMES           PTCLDY    68  65  90 E3        30.12S
ANKENY *       CLEAR     70  66  88 CALM      30.12R
CHARITON *     MOCLDY    72  68  88 CALM      30.13R
DES MOINES     MOCLDY    74  62  66 E6        30.12R
GRINNELL*      PTCLDY    70  64  83 CALM      30.13S
KNOXVILLE *    CLEAR     73  66  78 CALM      30.11R
MARSHALLTOWN   CLOUDY    69  64  84 NE3       30.13R
PELLA *        PTCLDY    70  66  88 CALM      30.13R
PERRY *          N/A     68  66  94 CALM      30.14R
$$

IAZ004>006-015-016-023>025-035-036-270300-
   NORTH CENTRAL IOWA

CITY           SKY/WX    TMP DP  RH WIND       PRES   REMARKS
ALGONA *       PTCLDY    66  61  82 NE3       30.16R
CLARION *      CLEAR     66  64  94 NE5       30.13S
ESTHERVILLE    MOCLDY    62  58  86 N3        30.16R
FORT DODGE *   MOCLDY    66  63  88 CALM      30.15R
MASON CITY     CLOUDY    64  62  93 CALM      30.16R
FOREST CITY *  CLEAR     64  61  88 CALM      30.15R
IOWA FALLS *   MOCLDY    68  63  83 CALM      30.15R
$$

IAZ007>011-017>019-026>030-037>042-050>054-066-270300-
   NORTHEAST IOWA

CITY           SKY/WX    TMP DP  RH WIND       PRES   REMARKS
CEDAR RAPIDS   CLEAR     70  65  84 N6        30.11R
CHARLES CITY * CLOUDY    66  63  88 N5        30.15R
CLINTON *      PTCLDY    70  64  83 N7        30.13R
DECORAH *      CLEAR     66  59  77 CALM      30.14R
DUBUQUE        CLEAR     67  63  87 N3        30.13R
MONTICELLO *   CLEAR     68  66  94 CALM      30.11S
OELWEIN *      CLOUDY    70  63  78 N3        30.14S
WATERLOO       CLOUDY    69  63  81 NE5       30.11S
$$

IAZ064-065-067-068-078-270300-
   EAST CENTRAL IOWA

CITY           SKY/WX    TMP DP  RH WIND       PRES   REMARKS
DAVENPORT      CLEAR     69  65  86 N5        30.11R
IOWA CITY      CLEAR     74  66  76 N7        30.12R
MT. PLEASANT * MOCLDY    73  68  83 N5        30.10R
MUSCATINE *    CLEAR     73  68  83 N6        30.09S
QUAD CITIES    CLEAR     76  65  68 N3        30.09R
$$

IAZ062-063-075>077-085>089-095>099-270300-
   SOUTHEAST IOWA

CITY           SKY/WX    TMP DP  RH WIND       PRES   REMARKS
BURLINGTON     PTCLDY    74  69  85 N6        30.09R
FAIRFIELD *    CLEAR     72  68  88 N3        30.10S
FORT MADISON * CLEAR     73  72  94 CALM      30.09S
KEOKUK *       CLEAR     75  72  88 NE5       30.07S
OSKALOOSA *      N/A     70  66  88 N6        30.11S
CENTERVILLE *  CLEAR     68  68 100 CALM      30.14R
OTTUMWA        PTCLDY    72  66  81 N6        30.10S
WASHINGTON *   CLEAR     72  70  94 N7        30.10S
$$

ABBREVIATIONS USED IN REMARKS
   TC - TEMPERATURES IN CELSIUS
  WCI - WIND CHILL INDEX
   HX - HEAT INDEX
  VSB - VISIBILITY
$$



USA.gov is the U.S. government's official web portal to all federal, state and local government web resources and services.